Location: Dackenheim
(49.5215°N, 8.1854°E)
Time: 02:53:08
(UTC+00:00)

UWE-3 - Pass Details

Date: 17 March 2026
Orbit: 543 x 612 km, 97.9° (Epoch: 12 April)

Event Time Altitude Azimuth Distance (km) Brightness Sun altitude
Rises 04:09:39 0° 356° (N) 2,889 ? -14.8°
Maximum altitude 04:14:39 11° 305° (NW) 1,888 ? -14.0°
Enters shadow 04:14:46 11° 304° (WNW) 1,888 ? -14.0°
